STARLINK-1296 (45412 NORAD) Tracking and Keplerian Element Data

This shows tracking and keplerian element data for the satellite.

Feedback or suggestion? Click here.




ElementValue
Catalog45412
NameSTARLINK-1296
Epoch Orbit178
Epoch Day143.75001157
Epoch Year2020
RAAN294.8883
Inclination52.9993
Eccentricity0.0001505
Argument of Perigee49.8028
Mean Anonmoly146.3058
Mean Motion15.62721605
Decay Rate0.00014985
L11 45412U 20019BE 20143.75001157 .00014985 00000-0 16939-3 0 9992
L22 45412 52.9993 294.8883 0001505 49.8028 146.3058 15.62721605 1787

Live tracking and technical data element details for STARLINK-1296 (NORAD 45412). STARLINK-1296 can be tracked NOW for your location showing map with azimuth and elevation plus other details from your city location.

Track the satellite on the map from your city or location and see movement details for azimuth, elevation, latitude, longitude, range, height, and movement on the map or in text.







IsCatalogInMostPopularTable: catalog: 45412, numindb: 20
Update: records affected: 1



GetName: 45412 STARLINK-1296

Hit Count: updated at: Mon, 25 May 2020 07:50:15 GMT